Regional Weather Roundup
Issued by NWS Columbia, SC

Home | Current Version | Previous Version | Text Only | Print | Product List | Glossary On
Versions: 1 2 3 4 5 6 7 8 9 10 11 12 13 14 15 16 17 18 19 20 21 22 23 24 25 26 27 28 29 30 31 32 33 34 35 36 37 38 39 40 41 42 43 44 45 46 47 48 49 50
000
ASUS42 KCAE 231310
RWRCAE
REGIONAL WEATHER ROUNDUP
NATIONAL WEATHER SERVICE COLUMBIA SC
900 AM EDT SAT AUG 23 2014

NOTE: "FAIR" INDICATES FEW OR NO CLOUDS BELOW 12,000 FEET WITH NO
SIGNIFICANT WEATHER AND/OR OBSTRUCTIONS TO VISIBILITY.

NOT ALL STATIONS ARE QUALITY CONTROLLED BY THE NATIONAL
WEATHER SERVICE. USE DATA WITH CAUTION...ESPECIALLY
DEWPOINT OBSERVATIONS.

SCZ001>056-GAZ040-063>065-077-231400-
...UPSTATE SOUTH CAROLINA...

CITY           SKY/WX    TMP DP  RH WIND       PRES   REMARKS
ANDERSON       SUNNY     79  71  76 CALM      30.00R
LIBERTY        FAIR      72  32  23 CALM      30.00S
SPARTANBURG    FAIR      81  73  78 CALM      29.99R
CLEMSON        SUNNY     81  70  69 CALM      30.01R
GREENVILLE     MOSUNNY   83  69  62 CALM      30.01R
GREENWOOD      SUNNY     81  70  69 W3        30.00R
GREER          MOSUNNY   77  72  84 CALM      29.99R
ROCK HILL      MOSUNNY   80  73  79 N3        29.98S
LAURENS        FAIR      79  68  69 CALM      29.99S


...CENTRAL SOUTH CAROLINA...

CITY           SKY/WX    TMP DP  RH WIND       PRES   REMARKS
COLUMBIA APT   MOSUNNY   84  72  67 CALM      29.94S
COLUMBIA OWENS SUNNY     84  72  67 N3        29.96R
DARLINGTON     SUNNY     81  73  78 N5        29.96R
FLORENCE       SUNNY     81  73  76 NE7       29.94R
MCENTIRE ANGB  MOSUNNY   82  73  73 CALM      29.95R
ORANGEBURG     SUNNY     81  70  69 NW6       29.94R
SUMTER SHAW    MOSUNNY   82  74  76 NE5       29.93R
NEWBERRY       FAIR      77  73  88 CALM      30.00S
AIKEN          FAIR      82  73  74 N5        30.00S
BARNWELL       FAIR      82  72  69 NW6       29.96R
MANNING        FAIR      82  79  89 CALM      29.93S
CAMDEN         FAIR      79  72  78 N5        29.96S
LANCASTER      FAIR      81  77  89 NW3       29.97S
WINNSBORO      FAIR      73  73 100 CALM      29.97S


...EASTERN AND COASTAL SOUTH CAROLINA...

CITY           SKY/WX    TMP DP  RH WIND       PRES   REMARKS
N MYRTLE BCH   PTSUNNY   80  78  94 NE5       29.92R FOG
CONWAY         PTSUNNY   77  77 100 CALM      29.92S FOG
MARION         FAIR      79  75  89 CALM      29.93S
HARTSVILLE     FAIR      82  61  47 N5        29.96R
FLORENCE       SUNNY     81  73  76 NE7       29.94R
DARLINGTON     SUNNY     81  73  78 N5        29.96R
CHARLESTON APT MOSUNNY   85  73  67 NW8       29.93R
MOUNT PLEASANT FAIR      84  75  74 NW3       29.92R
WALTERBORO     SUNNY     84  75  74 NW6       29.95R
BEAUFORT       SUNNY     86  74  67 N5        29.94R


...EASTERN GEORGIA...

CITY           SKY/WX    TMP DP  RH WIND       PRES   REMARKS
AUGUSTA BUSH F SUNNY     83  71  67 NW6       29.96R
AUGUSTA DANIEL SUNNY     84  71  65 NW8       29.98R
THOMSON        SUNNY     81  76  86 CALM      30.03R
WASHINGTON     FAIR      84  77  79 NW6       29.99S
CLAXTON        FAIR      82  77  83 CALM      29.97R
SYLVANIA       SUNNY     82  76  80 NW5       29.97R
STATESBORO     SUNNY     83  74  75 NW5       29.96S
SAVANNAH       MOSUNNY   84  72  67 NW6       29.95S


...SOUTHERN NORTH CAROLINA...

CITY           SKY/WX    TMP DP  RH WIND       PRES   REMARKS
CHARLOTTE      PTSUNNY   78  72  81 N5        29.98S
MONROE         MOSUNNY   76  72  87 NE5       29.97S
WADESBORO      PTSUNNY   77  73  85 CALM      29.96R
ROCKINGHAM     MOSUNNY   75  72  91 CALM      29.96R
RUTHERFORDTON  MOSUNNY   77  70  79 CALM      30.01R
ASHEVILLE      MOSUNNY   75  66  73 N7        30.08S

$$



USA.gov is the U.S. government's official web portal to all federal, state and local government web resources and services.